Home > Time Zones > World Clock > Weather > Yemen > Aden > Past weeks

Flag for Yemen Weather past 2 weeks in Aden, Yemen

Now
79 °F

Passing clouds.


Feels Like: 81 °F
Forecast: 75 / 82 °F
Wind: 15 mph from Southeast

Location: Aden

Current Time: Dec 19, 2014 at 7:23:18 AM

Latest Report: Dec 19, 2014 at 6:00 AM


Visibility: N/A

Pressure: 30.07 "Hg

Humidity: 65%

Dew point: 66 °F

Location of AdenLocation

Historic Weather in Aden — Graph

°F

Aden temperature yesterday

Maximum temperature yesterday: 84 °F (at 12:00 PM)
Minimum temperature yesterday: 79 °F (at 12:00 AM)
Average temperature yesterday: 80 °F

Past Weeks' High & Low Weather Summary

 TemperatureHumidityPressure
High84 °F (Dec 15, 8:00 AM)79% (Dec 18, 3:00 AM)30.42 "Hg (Dec 18, 3:00 AM)
Low77 °F (Dec 15, 9:00 AM)48% (Dec 15, 2:00 PM)29.95 "Hg (Dec 14, 1:00 PM)
Average81 °F63%30.03 "Hg
* Reported Dec 14 9:00 AM — Dec 19 6:00 AM, Aden, Weather by CustomWeather, © 2014

Note: Actual official high and low records may vary slightly from our data, if they occured in-between our weather recording intervals... More about our weather records

Advertising

Aden weather history for previous 24 hours

 ConditionsComfort  
Time TempWeatherWind HumidityBarometerVisibility
6:00 AM
Dec 19
79 °FPassing clouds.15 mph65%30.07 "HgN/A
5:00 AM79 °FPassing clouds.14 mph74%30.04 "HgN/A
4:00 AM79 °FPassing clouds.14 mph61%30.04 "HgN/A
3:00 AM79 °FPassing clouds.12 mph65%30.04 "HgN/A
2:00 AM79 °FPassing clouds.13 mph74%30.07 "HgN/A
1:00 AM79 °FPassing clouds.13 mph61%30.07 "HgN/A
12:00 AM79 °FPassing clouds.6 mph61%30.42 "HgN/A
11:00 PM
Dec 18
79 °FPassing clouds.12 mph61%30.09 "HgN/A
10:00 PM79 °FPassing clouds.9 mph61%30.09 "HgN/A
9:00 PM81 °FPassing clouds.8 mph74%30.09 "HgN/A
8:00 PM81 °FPartly cloudy.8 mph62%30.07 "HgN/A
7:00 PM81 °FPassing clouds.13 mph62%30.04 "HgN/A
6:00 PM81 °FPartly cloudy.13 mph74%30.01 "HgN/A
5:00 PM81 °FScattered clouds.12 mph70%30.01 "HgN/A
4:00 PM81 °FScattered clouds.15 mph70%29.98 "HgN/A
3:00 PM82 °FScattered clouds.16 mph66%29.98 "HgN/A
2:00 PM82 °FPassing clouds.16 mph62%29.98 "HgN/A
1:00 PM84 °FPassing clouds.13 mph66%30.01 "HgN/A
12:00 PM84 °FScattered clouds.13 mph66%30.04 "HgN/A
11:00 AM82 °FPassing clouds.12 mph66%30.07 "HgN/A
10:00 AM82 °FWarm.13 mph66%30.07 "HgN/A
9:00 AM81 °FScattered clouds.10 mph66%30.07 "HgN/A
7:00 AM79 °FPartly sunny.8 mph79%30.04 "HgN/A
Weather by CustomWeather, © 2014

See weather overviewHow to use our weather pages